Location: Celina Division
(33.3022°N, 96.7580°W)
Time: 11:34:58
(UTC+00:00)

H-2A R/B - Pass Details

Date: 08 December 2021
Orbit: 576 x 654 km, 98.5° (Epoch: 22 January)

Event Time Altitude Azimuth Distance (km) Brightness Sun altitude
Rises 12:34:11 0° 158° (SSE) 2,839 6.2 -9.3°
Reaches altitude 10° 12:36:20 10° 154° (SSE) 1,952 5.4 -8.9°
Maximum altitude 12:40:31 60° 75° (ENE) 707 2.6 -8.1°
Drops below altitude 10° 12:44:49 10° 355° (N) 2,012 4.4 -7.2°
Sets 12:47:04 0° 352° (N) 2,935 5.2 -6.8°
